| time (UTC) | temp C | wind direction | speed KPH | gust KPH | rain 1hr cm | rain 24hr cm | rain mn cm | humidity % | barometer mb |
| 20260502211522 | 21 | 38 | 11.3 | 22.5 | 0.00 | 2.13 | 0.76 | 39 | 1016.4 |
| 20260502210017 | 21 | 34 | 9.7 | 22.5 | 0.00 | 2.24 | 0.76 | 39 | 1016.5 |
| 20260502204520 | 21 | 24 | 9.7 | 20.9 | 0.00 | 2.36 | 0.76 | 40 | 1016.6 |
| 20260502203025 | 21 | 304 | 6.4 | 22.5 | 0.00 | 2.49 | 0.76 | 39 | 1016.8 |
| 20260502201508 | 21 | 294 | 14.5 | 29.0 | 0.00 | 2.77 | 0.76 | 38 | 1016.9 |
| 20260502200020 | 21 | 26 | 16.1 | 29.0 | 0.00 | 2.84 | 0.76 | 38 | 1017.2 |
| 20260502194518 | 21 | 274 | 12.9 | 29.0 | 0.00 | 2.90 | 0.76 | 39 | 1017.3 |
| 20260502193024 | 21 | 337 | 11.3 | 20.9 | 0.00 | 3.05 | 0.76 | 38 | 1017.2 |
| 20260502191507 | 21 | 347 | 8.0 | 20.9 | 0.00 | 3.12 | 0.76 | 40 | 1017.3 |
| 20260502190012 | 20 | 49 | 9.7 | 20.9 | 0.00 | 3.15 | 0.76 | 38 | 1017.3 |
| 20260502184518 | 20 | 295 | 12.9 | 27.4 | 0.00 | 3.15 | 0.76 | 39 | 1017.3 |
| 20260502183035 | 20 | 319 | 14.5 | 29.0 | 0.00 | 3.15 | 0.76 | 38 | 1017.5 |
| 20260502181535 | 20 | 23 | 6.4 | 17.7 | 0.00 | 3.15 | 0.76 | 42 | 1017.6 |
| 20260502163021 | 18 | 70 | 9.7 | 24.1 | 0.00 | 3.33 | 0.76 | 57 | 1018.0 |
| 20260502161524 | 17 | 41 | 9.7 | 22.5 | 0.00 | 3.35 | 0.76 | 58 | 1018.0 |
| 20260502151515 | 16 | 356 | 4.8 | 17.7 | 0.00 | 3.40 | 0.76 | 70 | 1017.6 |
| 20260502123024 | 12 | 301 | 3.2 | 8.0 | 0.00 | 3.43 | 0.76 | 94 | 1015.9 |
| 20260502121524 | 11 | 308 | 1.6 | 9.7 | 0.00 | 3.43 | 0.76 | 95 | 1015.8 |
| 20260502114515 | 11 | 349 | 0.0 | 4.8 | 0.00 | 3.43 | 0.76 | 95 | 1015.5 |
| 20260502113025 | 11 | 313 | 0.0 | 3.2 | 0.00 | 3.43 | 0.76 | 95 | 1015.1 |
| 20260502111505 | 11 | 276 | 0.0 | 0.0 | 0.00 | 3.45 | 0.76 | 95 | 1014.7 |
| 20260502110010 | 11 | 276 | 0.0 | 1.6 | 0.00 | 3.45 | 0.76 | 95 | 1014.7 |
| 20260502104515 | 11 | 212 | 0.0 | 3.2 | 0.00 | 3.48 | 0.76 | 95 | 1014.6 |
| 20260502103019 | 11 | 332 | 0.0 | 0.0 | 0.05 | 3.53 | 0.76 | 94 | 1014.2 |
| 20260502101519 | 11 | 332 | 0.0 | 1.6 | 0.15 | 3.53 | 0.76 | 94 | 1014.1 |
| 20260502091519 | 11 | 76 | 1.6 | 3.2 | 0.30 | 3.38 | 0.61 | 94 | 1014.2 |
| 20260502071513 | 11 | 314 | 4.8 | 11.3 | 0.13 | 3.02 | 0.15 | 94 | 1015.2 |
| 20260502070017 | 11 | 314 | 1.6 | 8.0 | 0.03 | 2.95 | 0.05 | 94 | 1015.2 |
| 20260502064522 | 11 | 325 | 3.2 | 12.9 | 0.03 | 2.95 | 0.05 | 94 | 1014.9 |
| 20260502063003 | 11 | 28 | 1.6 | 8.0 | 0.03 | 2.95 | 0.05 | 94 | 1015.0 |
| 20260502061509 | 11 | 300 | 3.2 | 6.4 | 0.00 | 2.92 | 0.03 | 94 | 1015.2 |
| 20260502060015 | 10 | 4 | 3.2 | 9.7 | 0.03 | 2.95 | 0.03 | 94 | 1015.1 |
| 20260502054518 | 10 | 14 | 3.2 | 6.4 | 0.05 | 2.97 | 0.03 | 94 | 1015.1 |
| 20260502053023 | 10 | 15 | 1.6 | 11.3 | 0.05 | 2.97 | 0.03 | 94 | 1015.1 |
| 20260502051508 | 10 | 8 | 3.2 | 9.7 | 0.08 | 3.02 | 0.03 | 94 | 1014.8 |
| 20260502050011 | 10 | 341 | 1.6 | 6.4 | 0.05 | 2.97 | 0.00 | 94 | 1014.9 |
| 20260502044517 | 10 | 316 | 3.2 | 11.3 | 0.05 | 2.97 | 2.95 | 94 | 1015.1 |
| 20260502043021 | 10 | 32 | 4.8 | 14.5 | 0.10 | 2.97 | 2.95 | 94 | 1014.5 |
| 20260502041524 | 10 | 24 | 1.6 | 9.7 | 0.15 | 2.95 | 2.95 | 94 | 1015.2 |
| 20260502040029 | 10 | 315 | 1.6 | 6.4 | 0.20 | 2.97 | 2.95 | 94 | 1015.3 |
| 20260502034522 | 10 | 70 | 0.0 | 3.2 | 0.20 | 2.97 | 2.92 | 94 | 1015.8 |
| 20260502033016 | 10 | 35 | 3.2 | 6.4 | 0.18 | 2.95 | 2.87 | 94 | 1016.1 |
| 20260502031524 | 10 | 65 | 1.6 | 4.8 | 0.10 | 2.90 | 2.79 | 94 | 1016.2 |
| 20260502030024 | 10 | 6 | 0.0 | 3.2 | 0.05 | 2.84 | 2.74 | 94 | 1015.8 |
| 20260502024533 | 10 | 336 | 3.2 | 8.0 | 0.05 | 2.82 | 2.72 | 93 | 1015.5 |
| 20260502023013 | 10 | 11 | 1.6 | 8.0 | 0.10 | 2.79 | 2.67 | 93 | 1014.8 |
| 20260502021518 | 10 | 5 | 1.6 | 9.7 | 0.15 | 2.79 | 2.67 | 93 | 1015.1 |
| 20260502020024 | 10 | 347 | 1.6 | 4.8 | 0.15 | 2.79 | 2.67 | 94 | 1014.7 |
| 20260502014505 | 10 | 340 | 1.6 | 3.2 | 0.15 | 2.79 | 2.64 | 93 | 1014.8 |
| 20260502013011 | 10 | 57 | 1.6 | 3.2 | 0.10 | 2.79 | 2.59 | 93 | 1014.9 |
| 20260502011522 | 10 | 305 | 1.6 | 8.0 | 0.08 | 2.77 | 2.54 | 93 | 1013.7 |
| 20260502010020 | 10 | 12 | 3.2 | 6.4 | 0.10 | 2.82 | 2.54 | 92 | 1013.6 |
| 20260502004524 | 10 | 37 | 3.2 | 8.0 | 0.13 | 2.79 | 2.51 | 92 | 1013.4 |
| 20260502003007 | 10 | 39 | 1.6 | 9.7 | 0.15 | 2.77 | 2.49 | 92 | 1013.7 |
| 20260502001513 | 10 | 55 | 1.6 | 9.7 | 0.15 | 2.77 | 2.46 | 92 | 1013.8 |
| 20260502000018 | 10 | 41 | 4.8 | 14.5 | 0.18 | 2.74 | 2.44 | 92 | 1014.1 |
| 20260501234522 | 10 | 133 | 1.6 | 9.7 | 0.15 | 2.67 | 2.39 | 93 | 1013.7 |
| 20260501233030 | 10 | 178 | 0.0 | 3.2 | 0.18 | 2.64 | 2.34 | 93 | 1014.0 |
| 20260501231511 | 10 | 62 | 1.6 | 8.0 | 0.28 | 2.62 | 2.31 | 93 | 1013.6 |
| 20260501230014 | 10 | 11 | 1.6 | 11.3 | 0.30 | 2.57 | 2.26 | 92 | 1014.0 |
| 20260501224524 | 10 | 6 | 3.2 | 9.7 | 0.38 | 2.54 | 2.24 | 92 | 1014.4 |
| 20260501223022 | 10 | 56 | 3.2 | 11.3 | 0.38 | 2.46 | 2.16 | 91 | 1014.0 |
| 20260501221525 | 10 | 18 | 3.2 | 9.7 | 0.41 | 2.34 | 2.03 | 91 | 1014.0 |
| 20260501220018 | 10 | 24 | 3.2 | 16.1 | 0.43 | 2.26 | 1.96 | 91 | 1013.9 |
| 20260501214515 | 11 | 6 | 4.8 | 14.5 | 0.46 | 2.16 | 1.85 | 92 | 1014.1 |
| 20260501213018 | 11 | 325 | 3.2 | 12.9 | 0.51 | 2.08 | 1.78 | 92 | 1013.6 |